Total_Precipitation_Accumulation
1.70 1.67 1.58 1.59 1.69 1.73 1.82 1.88 1.82 1.66 1.61 1.50 1.16 0.94 0.97 1.05 1.24 1.11 1.00 0.92 0.85 0.78 0.67 0.67 0.71 0.78 0.87 0.97 1.13 1.25 1.28 1.28 1.28 1.21 1.20 1.26 1.28 1.31
1.47 1.49 1.48 1.50 1.61 1.64 1.70 1.84 1.93 1.93 1.75 1.58 1.40 1.12 1.10 1.01 1.12 1.11 1.06 0.98 0.83 0.72 0.62 0.60 0.62 0.66 0.74 0.80 0.88 1.00 1.05 1.03 1.04 1.07 1.07 1.05 1.04 1.07
1.17 1.20 1.26 1.37 1.51 1.57 1.61 1.67 1.87 2.03 1.91 1.81 1.69 1.55 1.40 1.24 1.09 1.07 1.07 1.01 0.84 0.71 0.58 0.54 0.58 0.61 0.64 0.70 0.78 0.86 0.93 0.97 0.96 0.99 1.02 1.03 1.02 1.01
1.06 1.16 1.22 1.35 1.46 1.44 1.53 1.61 1.80 2.02 2.08 2.21 2.26 2.01 1.70 1.47 1.35 1.20 0.98 0.88 0.87 0.75 0.60 0.53 0.52 0.55 0.57 0.62 0.68 0.79 0.89 0.93 0.95 0.97 0.97 0.97 1.00 1.03
1.08 1.17 1.16 1.20 1.29 1.31 1.43 1.56 1.71 1.86 2.03 2.13 2.26 2.09 1.90 1.61 1.60 1.41 1.16 1.07 0.86 0.81 0.70 0.59 0.54 0.53 0.54 0.59 0.64 0.70 0.78 0.87 0.90 0.99 1.04 1.02 1.03 1.06
1.02 1.02 0.99 1.00 1.09 1.18 1.23 1.40 1.55 1.69 1.81 1.86 2.01 2.07 2.09 2.06 1.98 1.75 1.57 1.37 1.12 0.88 0.83 0.66 0.59 0.56 0.54 0.54 0.58 0.65 0.75 0.86 0.91 0.95 1.02 1.08 1.12 1.14
0.96 0.89 0.77 0.78 0.82 0.86 0.93 1.16 1.33 1.47 1.62 1.72 1.86 2.04 2.15 2.26 2.12 1.99 1.87 1.74 1.49 1.29 1.26 0.98 0.83 0.69 0.59 0.57 0.57 0.59 0.65 0.79 0.89 0.97 1.02 1.05 1.12 1.20
0.82 0.84 0.75 0.65 0.60 0.62 0.65 0.77 0.96 1.12 1.35 1.61 1.79 2.01 2.09 2.06 2.17 2.17 2.10 1.96 1.83 1.65 1.60 1.57 1.39 1.21 0.97 0.72 0.66 0.59 0.55 0.65 0.80 0.90 1.01 1.10 1.14 1.20
0.69 0.74 0.66 0.59 0.57 0.53 0.58 0.65 0.70 0.78 0.92 1.23 1.51 1.63 1.65 1.65 1.88 2.08 2.07 2.00 1.97 1.86 1.84 1.93 1.82 1.57 1.20 0.99 0.87 0.70 0.61 0.58 0.66 0.76 0.83 0.94 1.06 1.15
0.61 0.66 0.68 0.69 0.61 0.59 0.59 0.64 0.62 0.61 0.64 0.72 0.88 1.03 1.21 1.35 1.57 1.86 2.10 2.08 2.11 2.08 1.99 2.13 2.04 1.88 1.52 1.17 0.97 0.75 0.67 0.65 0.68 0.74 0.78 0.82 0.88 0.99
0.60 0.60 0.64 0.68 0.62 0.52 0.54 0.59 0.62 0.63 0.57 0.58 0.62 0.75 0.90 1.05 1.24 1.49 1.75 2.02 2.28 2.31 2.08 2.11 2.10 2.09 2.06 1.65 1.22 0.97 0.77 0.70 0.68 0.70 0.73 0.75 0.78 0.85
0.73 0.72 0.58 0.54 0.53 0.41 0.44 0.54 0.55 0.56 0.52 0.55 0.58 0.61 0.66 0.80 0.94 1.14 1.33 1.56 1.82 2.01 1.98 2.01 2.15 2.39 2.54 2.15 1.59 1.16 0.93 0.88 0.80 0.72 0.70 0.71 0.73 0.68
0.75 0.77 0.69 0.50 0.41 0.36 0.35 0.44 0.49 0.47 0.54 0.61 0.68 0.70 0.69 0.74 0.80 0.91 1.13 1.26 1.33 1.33 1.35 1.60 1.82 2.04 2.34 2.34 2.11 1.70 1.33 1.07 0.90 0.80 0.79 0.81 0.82 0.76
0.81 0.80 0.67 0.48 0.40 0.37 0.33 0.36 0.35 0.34 0.43 0.55 0.64 0.69 0.70 0.71 0.77 0.86 0.99 1.13 1.26 1.23 1.19 1.30 1.49 1.67 1.72 1.77 1.85 1.89 1.82 1.61 1.33 1.10 0.95 0.99 0.97 1.01
0.69 0.73 0.65 0.46 0.40 0.42 0.41 0.35 0.31 0.31 0.39 0.46 0.52 0.60 0.62 0.67 0.77 0.91 1.07 1.13 1.18 1.18 1.11 1.13 1.26 1.42 1.46 1.47 1.49 1.55 1.65 1.65 1.55 1.46 1.38 1.24 1.09 1.04
0.58 0.61 0.64 0.57 0.46 0.49 0.51 0.42 0.36 0.41 0.44 0.44 0.48 0.55 0.61 0.69 0.79 0.86 0.96 1.06 1.15 1.16 1.10 1.09 1.15 1.24 1.30 1.31 1.26 1.26 1.33 1.47 1.58 1.62 1.62 1.57 1.42 1.31
0.62 0.71 0.73 0.77 0.68 0.65 0.66 0.60 0.54 0.57 0.55 0.52 0.52 0.56 0.63 0.67 0.72 0.81 0.88 0.93 1.00 1.07 1.06 1.05 1.07 1.13 1.16 1.15 1.16 1.13 1.11 1.16 1.31 1.53 1.67 1.72 1.58 1.45
0.63 0.76 0.85 0.88 0.85 0.85 0.83 0.78 0.77 0.71 0.68 0.67 0.63 0.59 0.62 0.67 0.68 0.73 0.80 0.83 0.84 0.90 0.99 0.97 0.98 1.08 1.17 1.14 0.98 0.91 0.91 0.96 1.01 1.13 1.32 1.51 1.52 1.42
0.65 0.77 0.89 0.93 0.93 0.94 0.89 0.84 0.86 0.79 0.76 0.76 0.72 0.70 0.69 0.72 0.71 0.72 0.77 0.82 0.81 0.80 0.86 0.93 0.88 0.88 0.95 1.00 0.89 0.68 0.74 0.83 0.86 0.87 0.94 1.08 1.23 1.22
0.72 0.84 0.95 0.93 0.96 0.98 0.92 0.87 0.89 0.84 0.78 0.75 0.74 0.71 0.70 0.74 0.76 0.73 0.71 0.75 0.78 0.79 0.83 0.85 0.81 0.73 0.71 0.79 0.79 0.70 0.56 0.71 0.82 0.86 0.85 0.87 0.91 1.01
0.81 0.90 0.92 0.91 0.94 0.92 0.86 0.83 0.86 0.82 0.77 0.75 0.72 0.71 0.70 0.75 0.78 0.77 0.73 0.75 0.75 0.72 0.72 0.76 0.73 0.72 0.76 0.85 0.88 0.83 0.69 0.62 0.72 0.78 0.82 0.87 0.87 0.84
0.78 0.82 0.81 0.79 0.79 0.80 0.78 0.78 0.83 0.81 0.78 0.75 0.70 0.67 0.67 0.71 0.74 0.75 0.72 0.69 0.70 0.69 0.69 0.75 0.77 0.75 0.77 0.80 0.83 0.83 0.80 0.75 0.72 0.77 0.81 0.81 0.75 0.70
0.69 0.73 0.75 0.72 0.68 0.69 0.70 0.71 0.75 0.77 0.72 0.67 0.63 0.62 0.62 0.68 0.69 0.67 0.69 0.66 0.67 0.71 0.77 0.80 0.81 0.80 0.79 0.84 0.91 0.94 0.87 0.83 0.81 0.78 0.69 0.64 0.59 0.55